| time (UTC) | temp C | wind direction | speed KPH | gust KPH | rain 1hr cm | rain 24hr cm | rain mn cm | humidity % | barometer mb |
| 20260510120016 | 12 | 0.0 | 0.0 | 0.00 | 1.12 | 0.00 | 95 | 1013.0 | |
| 20260510115016 | 12 | 0.0 | 1.6 | 0.00 | 1.12 | 0.00 | 95 | 1012.8 | |
| 20260510114016 | 12 | 0.0 | 1.6 | 0.00 | 1.12 | 0.00 | 96 | 1012.8 | |
| 20260510113036 | 12 | 0.0 | 1.6 | 0.00 | 1.12 | 0.00 | 96 | 1012.9 | |
| 20260510112016 | 12 | 0.0 | 0.0 | 0.00 | 1.12 | 0.00 | 96 | 1012.8 | |
| 20260510111016 | 12 | 0.0 | 1.6 | 0.00 | 1.12 | 0.00 | 96 | 1012.9 | |
| 20260510110016 | 11 | 0.0 | 3.2 | 0.00 | 1.12 | 0.00 | 96 | 1013.2 | |
| 20260510105016 | 11 | 0.0 | 0.0 | 0.00 | 1.12 | 0.00 | 96 | 1013.2 | |
| 20260510104016 | 11 | 0.0 | 0.0 | 0.00 | 1.12 | 0.00 | 96 | 1013.1 | |
| 20260510103016 | 11 | 0.0 | 0.0 | 0.00 | 1.12 | 0.00 | 96 | 1013.0 | |
| 20260510102016 | 11 | 0.0 | 0.0 | 0.00 | 1.12 | 0.00 | 96 | 1013.0 | |
| 20260510101016 | 11 | 0.0 | 0.0 | 0.00 | 1.12 | 0.00 | 96 | 1013.2 | |
| 20260510100016 | 11 | 0.0 | 0.0 | 0.00 | 1.12 | 0.00 | 96 | 1013.2 | |
| 20260510095036 | 11 | 0.0 | 0.0 | 0.00 | 1.12 | 0.00 | 96 | 1013.2 | |
| 20260510094036 | 11 | 0.0 | 0.0 | 0.00 | 1.12 | 0.00 | 96 | 1013.0 | |
| 20260510093016 | 11 | 0.0 | 0.0 | 0.00 | 1.12 | 0.00 | 96 | 1012.8 | |
| 20260510092016 | 11 | 0.0 | 0.0 | 0.00 | 1.12 | 0.00 | 96 | 1012.5 | |
| 20260510091016 | 11 | 0.0 | 4.8 | 0.00 | 1.12 | 0.00 | 96 | 1012.5 | |
| 20260510090016 | 11 | 0.0 | 0.0 | 0.00 | 1.12 | 0.00 | 96 | 1012.3 | |
| 20260510085016 | 11 | 0.0 | 1.6 | 0.00 | 1.12 | 0.00 | 96 | 1012.2 | |
| 20260510084016 | 11 | 0.0 | 1.6 | 0.00 | 1.12 | 0.00 | 96 | 1012.2 | |
| 20260510083016 | 11 | 0.0 | 0.0 | 0.00 | 1.12 | 0.00 | 96 | 1012.3 | |
| 20260510082016 | 11 | 0.0 | 6.4 | 0.00 | 1.12 | 0.00 | 96 | 1012.4 | |
| 20260510081016 | 11 | 0.0 | 0.0 | 0.00 | 1.12 | 0.00 | 97 | 1012.5 | |
| 20260510080016 | 11 | 0.0 | 3.2 | 0.00 | 1.12 | 0.00 | 97 | 1012.5 | |
| 20260510075016 | 11 | 0.0 | 3.2 | 0.00 | 1.12 | 0.00 | 97 | 1012.4 | |
| 20260510074021 | 11 | 0.0 | 1.6 | 0.00 | 1.12 | 0.00 | 97 | 1012.3 | |
| 20260510073036 | 11 | 0.0 | 0.0 | 0.00 | 1.12 | 0.00 | 97 | 1012.3 | |
| 20260510072016 | 11 | 0.0 | 0.0 | 0.00 | 1.12 | 0.00 | 97 | 1012.1 | |
| 20260510071016 | 11 | 0.0 | 0.0 | 0.00 | 1.12 | 0.00 | 97 | 1011.8 | |
| 20260510070016 | 11 | 0.0 | 0.0 | 0.00 | 1.12 | 0.00 | 97 | 1011.7 | |
| 20260510065016 | 11 | 0.0 | 0.0 | 0.00 | 1.12 | 0.00 | 97 | 1011.8 | |
| 20260510064016 | 11 | 0.0 | 0.0 | 0.00 | 1.12 | 0.00 | 97 | 1012.0 | |
| 20260510063016 | 11 | 0.0 | 1.6 | 0.00 | 1.12 | 0.00 | 97 | 1012.0 | |
| 20260510062016 | 11 | 0.0 | 4.8 | 0.00 | 1.12 | 0.00 | 97 | 1012.1 | |
| 20260510061036 | 11 | 0.0 | 3.2 | 0.00 | 1.12 | 0.00 | 97 | 1012.2 | |
| 20260510060016 | 11 | 0.0 | 0.0 | 0.00 | 1.12 | 0.00 | 96 | 1012.1 | |
| 20260510055016 | 11 | 0.0 | 1.6 | 0.00 | 1.12 | 0.00 | 96 | 1011.9 | |
| 20260510054016 | 11 | 0.0 | 0.0 | 0.00 | 1.12 | 0.00 | 96 | 1011.8 | |
| 20260510053016 | 11 | 0.0 | 0.0 | 0.00 | 1.12 | 0.00 | 96 | 1011.8 | |
| 20260510052015 | 11 | 0.0 | 0.0 | 0.00 | 1.12 | 0.00 | 96 | 1011.9 | |
| 20260510051016 | 11 | 0.0 | 0.0 | 0.00 | 1.12 | 0.00 | 96 | 1012.0 | |
| 20260510050016 | 11 | 0.0 | 0.0 | 0.00 | 1.12 | 0.00 | 96 | 1012.1 | |
| 20260510045016 | 11 | 0.0 | 0.0 | 0.00 | 1.12 | 0.00 | 96 | 1012.2 | |
| 20260510044016 | 11 | 0.0 | 0.0 | 0.00 | 1.12 | 0.00 | 96 | 1012.2 | |
| 20260510043116 | 11 | 0.0 | 0.0 | 0.00 | 1.12 | 0.00 | 96 | 1012.4 | |
| 20260510042016 | 11 | 0.0 | 0.0 | 0.00 | 1.12 | 0.00 | 96 | 1012.2 | |
| 20260510041018 | 11 | 0.0 | 0.0 | 0.00 | 1.12 | 0.00 | 96 | ||
| 20260510040018 | 11 | 0.0 | 0.0 | 0.05 | 1.12 | 1.19 | 96 | ||
| 20260510035037 | 11 | 0.0 | 0.0 | 0.08 | 1.12 | 1.19 | 96 | ||
| 20260510034017 | 11 | 0.0 | 0.0 | 0.08 | 1.12 | 1.19 | 96 | ||
| 20260510033016 | 11 | 0.0 | 0.0 | 0.08 | 1.12 | 1.19 | 96 | ||
| 20260510032017 | 11 | 0.0 | 0.0 | 0.08 | 1.12 | 1.19 | 96 | ||
| 20260510031017 | 11 | 0.0 | 0.0 | 0.08 | 1.12 | 1.19 | 96 | ||
| 20260510030017 | 11 | 0.0 | 1.6 | 0.03 | 1.07 | 1.14 | 96 | ||
| 20260510025017 | 11 | 0.0 | 1.6 | 0.00 | 1.04 | 1.12 | 96 | ||
| 20260510024016 | 11 | 0.0 | 0.0 | 0.00 | 1.04 | 1.12 | 95 | ||
| 20260510023016 | 11 | 0.0 | 0.0 | 0.00 | 1.04 | 1.12 | 95 | ||
| 20260510022017 | 11 | 0.0 | 0.0 | 0.00 | 1.04 | 1.12 | 95 | ||
| 20260510021017 | 11 | 0.0 | 0.0 | 0.00 | 1.04 | 1.12 | 95 | ||
| 20260510020017 | 11 | 0.0 | 0.0 | 0.00 | 1.04 | 1.12 | 95 | ||
| 20260510015017 | 11 | 0.0 | 1.6 | 0.00 | 1.04 | 1.12 | 95 | ||
| 20260510014017 | 12 | 0.0 | 0.0 | 0.00 | 1.04 | 1.12 | 95 | ||
| 20260510013036 | 12 | 0.0 | 0.0 | 0.00 | 1.04 | 1.12 | 95 | ||
| 20260510012017 | 12 | 0.0 | 0.0 | 0.03 | 1.04 | 1.12 | 95 | ||
| 20260510011116 | 12 | 0.0 | 3.2 | 0.03 | 1.04 | 1.12 | 95 | ||
| 20260510010037 | 12 | 0.0 | 1.6 | 0.03 | 1.04 | 1.12 | 95 | ||
| 20260510005017 | 12 | 0.0 | 0.0 | 0.03 | 1.04 | 1.12 | 96 | ||
| 20260510004017 | 12 | 0.0 | 0.0 | 0.05 | 1.04 | 1.12 | 96 | ||
| 20260510003017 | 12 | 0.0 | 0.0 | 0.05 | 1.04 | 1.12 | 95 | ||
| 20260510002017 | 12 | 0.0 | 0.0 | 0.08 | 1.02 | 1.09 | 95 | ||
| 20260510001016 | 12 | 0.0 | 0.0 | 0.15 | 1.02 | 1.09 | 95 | ||
| 20260510000016 | 12 | 0.0 | 0.0 | 0.20 | 1.02 | 1.09 | 95 | ||
| 20260509235016 | 12 | 0.0 | 1.6 | 0.25 | 1.02 | 1.09 | 95 | ||
| 20260509234016 | 12 | 0.0 | 0.0 | 0.28 | 0.99 | 1.07 | 95 | ||
| 20260509233037 | 12 | 0.0 | 0.0 | 0.36 | 0.99 | 1.07 | 95 | ||
| 20260509232016 | 12 | 135 | 1.6 | 8.0 | 0.43 | 0.94 | 1.02 | 94 | |
| 20260509231016 | 13 | 0.0 | 1.6 | 0.43 | 0.86 | 0.94 | 95 | ||
| 20260509230036 | 13 | 0.0 | 8.0 | 0.46 | 0.81 | 0.89 | 94 | ||
| 20260509225017 | 13 | 0.0 | 1.6 | 0.46 | 0.76 | 0.84 | 94 | ||
| 20260509224016 | 13 | 0.0 | 1.6 | 0.43 | 0.71 | 0.79 | 94 | ||
| 20260509223036 | 13 | 0.0 | 1.6 | 0.38 | 0.64 | 0.71 | 93 | ||
| 20260509222016 | 13 | 0.0 | 0.0 | 0.30 | 0.51 | 0.58 | 93 | ||
| 20260509221017 | 13 | 0.0 | 0.0 | 0.25 | 0.43 | 0.51 | 93 | ||
| 20260509220016 | 13 | 0.0 | 1.6 | 0.20 | 0.36 | 0.43 | 92 | ||
| 20260509215016 | 13 | 0.0 | 4.8 | 0.15 | 0.30 | 0.38 | 92 | ||
| 20260509214016 | 13 | 0.0 | 1.6 | 0.18 | 0.28 | 0.36 | 91 | ||
| 20260509213016 | 13 | 0.0 | 0.0 | 0.15 | 0.25 | 0.33 | 90 | ||
| 20260509212036 | 14 | 0.0 | 0.0 | 0.13 | 0.20 | 0.28 | 90 | ||
| 20260509211016 | 14 | 0.0 | 0.0 | 0.10 | 0.18 | 0.25 | 89 | ||
| 20260509210016 | 14 | 0.0 | 1.6 | 0.08 | 0.15 | 0.23 | 88 | ||
| 20260509205016 | 14 | 0.0 | 0.0 | 0.08 | 0.15 | 0.23 | 86 | ||
| 20260509204016 | 14 | 0.0 | 4.8 | 0.05 | 0.10 | 0.18 | 84 | ||
| 20260509203016 | 14 | 0.0 | 1.6 | 0.05 | 0.10 | 0.18 | 87 | ||
| 20260509202016 | 15 | 0.0 | 0.0 | 0.03 | 0.08 | 0.15 | 88 | ||
| 20260509201057 | 14 | 0.0 | 0.0 | 0.03 | 0.08 | 0.15 | 86 | ||
| 20260509200016 | 15 | 0.0 | 0.0 | 0.03 | 0.08 | 0.15 | 84 | ||
| 20260509195016 | 15 | 0.0 | 0.0 | 0.03 | 0.08 | 0.15 | 81 | ||
| 20260509194016 | 15 | 0.0 | 1.6 | 0.00 | 0.05 | 0.13 | 78 | ||
| 20260509193016 | 15 | 0.0 | 1.6 | 0.00 | 0.05 | 0.13 | 78 | ||
| 20260509192017 | 15 | 0.0 | 0.0 | 0.00 | 0.05 | 0.13 | 80 | ||
| 20260509191017 | 15 | 0.0 | 0.0 | 0.00 | 0.05 | 0.13 | 81 | ||
| 20260509190016 | 15 | 0.0 | 1.6 | 0.00 | 0.05 | 0.13 | 81 | ||
| 20260509185016 | 15 | 0.0 | 0.0 | 0.03 | 0.05 | 0.13 | 83 | ||
| 20260509184016 | 15 | 0.0 | 1.6 | 0.05 | 0.05 | 0.13 | 84 | ||
| 20260509183016 | 14 | 0.0 | 0.0 | 0.05 | 0.05 | 0.13 | 86 | ||
| 20260509182016 | 14 | 0.0 | 0.0 | 0.05 | 0.05 | 0.13 | 84 | ||
| 20260509181016 | 14 | 0.0 | 3.2 | 0.05 | 0.05 | 0.13 | 83 | ||
| 20260509180016 | 14 | 0.0 | 0.0 | 0.05 | 0.05 | 0.13 | 82 | ||
| 20260509175016 | 15 | 0.0 | 4.8 | 0.03 | 0.03 | 0.10 | 78 | ||
| 20260509174016 | 16 | 0.0 | 0.0 | 0.00 | 0.00 | 0.08 | 73 | ||
| 20260509173016 | 16 | 0.0 | 0.0 | 0.00 | 0.00 | 0.08 | 72 | ||
| 20260509172016 | 16 | 0.0 | 0.0 | 0.00 | 0.00 | 0.08 | 71 | ||
| 20260509171056 | 16 | 0.0 | 0.0 | 0.00 | 0.00 | 0.08 | 73 | ||
| 20260509170016 | 15 | 0.0 | 0.0 | 0.00 | 0.00 | 0.08 | 75 | ||
| 20260509165036 | 15 | 0.0 | 0.0 | 0.00 | 0.00 | 0.08 | 76 |